Back to catalog

COSMOS 839 DEB

AliveUNKNOWN
NORAD 10463·DEBRIS·🇷🇺 Russia

Launched Jul 8, 1976 from Plesetsk Cosmodrome

Loading…

Next Passes (next 24 hours)

TLE

FreshSource: Space-Track

Epoch: Sep 14, 2026, 14:26 UTC

1 10463U 76067AG  26257.60144653 -.00000045  00000-0  37839-4 0  9995
2 10463  65.8227 115.9092 0695512 347.6338  38.2671 12.32562676257499

Track COSMOS 839 DEB in real time with AllMySat

Download on the App Store